Downstream station:
SHEF ID: BZRK1 SF COTTONWOOD R NR BAZAAR, KS
STATION TYPE:
PRECIP STAGE RIV-FLOW BAT-LOAD
in ft cfs volt
Ccp-Rev Ccp-Rev Ccp-Rev Ccp-Rev
(US/Central)
11/19 00:00 0.00 7.11 52 12.65
11/19 01:00 0.00 7.10 51 12.65
11/19 02:00 0.00 7.10 51 12.60
11/19 03:00 0.00 7.11 52 12.60
11/19 04:00 0.00 7.10 51 12.54
11/19 05:00 0.00 7.10 51 12.54
11/19 06:00 0.00 7.10 51 12.48
11/19 07:00 0.00 7.10 51 12.42
11/19 08:00 0.00 7.09 51 12.60
11/19 09:00 0.00 7.09 51 13.59
11/19 10:00 ---- 7.09 51 ----
11/19 11:00 0.00 7.09 51 14.47
11/19 12:00 0.00 7.08 50 14.24
11/19 13:00 0.00 7.07 49 14.35
11/19 14:00 0.00 7.06 48 13.94
11/19 15:00 0.00 7.08 50 13.94
11/19 16:00 0.00 7.08 50 13.65
11/19 17:00 0.00 7.08 50 13.59
11/19 18:00 0.00 7.09 51 13.07
11/19 19:00 0.00 7.09 51 12.77
11/19 20:00 0.00 7.09 51 12.77
11/19 21:00 0.00 7.09 51 12.77
11/19 22:00 0.00 7.09 51 12.71
11/19 23:00 ---- ---- ---- ----